Weather History for KHYR - November, 2011

Change the Weather History Date:

Thursday, November 24, 2011

  Actual Average Record
Temperature  
Mean Temperature 45 °F -  
Max Temperature 53 °F 36 °F 55 °F (2006)
Min Temperature 37 °F 11 °F -9 °F (1997)
Degree Days  
Heating Degree Days 20    
Moisture  
Dew Point 38 °F    
Average Humidity 76    
Maximum Humidity 93    
Minimum Humidity 59    
Precipitation  
Precipitation 0.00 in - - ()
Sea Level Pressure  
Sea Level Pressure 29.86 in    
Wind  
Wind Speed 7 mph (SSW)    
Max Wind Speed 13 mph    
Max Gust Speed 20 mph    
Visibility 7 miles    
Events      
Averages and records for this station are not official NWS values.
T = Trace of Precipitation, MM = Missing Value Source: NWS Daily Summary

Daily Weather History Graph

Daily Weather History Graph

Search for Another Location

Airport or City:

Trip Planner

Search our weather history database for the weather conditions in past years. The results will help you decide how hot, cold, wet, or windy it might be!

Date:

Astronomy

Nov. 24, 2011 Rise Set
Actual Time 7:18 AM CST 4:26 PM CST
Civil Twilight 6:44 AM CST 4:59 PM CST
Nautical Twilight 6:08 AM CST 5:36 PM CST
Astronomical Twilight 5:32 AM CST 6:12 PM CST
Moon 6:37 AM CST (11/24) 3:55 PM CST (11/24)
Length of Visible Light 10h 14m
Length of Day
9h 08m
Waning Crescent, 0% of the Moon is Illuminated
Nov 24
Waning Crescent
Nov 25
New
Dec 2
First Quarter
Dec 10
Full
Dec 17
Last Quarter

Hourly Weather History & Observations

Time (CST) Temp. Windchill Dew Point Humidity Pressure Visibility Wind Dir Wind Speed Gust Speed Precip Events Conditions
12:53 AM 39.0 °F 34.0 °F 36.0 °F 89% 30.00 in 5.0 mi South 6.9 mph - N/A   Clear
1:53 AM 37.9 °F 32.7 °F 35.1 °F 89% 30.00 in 4.0 mi SSW 6.9 mph - N/A   Mostly Cloudy
2:53 AM 37.9 °F 32.7 °F 35.1 °F 89% 29.99 in 4.0 mi SSW 6.9 mph - N/A   Mostly Cloudy
3:53 AM 37.9 °F 32.1 °F 35.1 °F 89% 29.98 in 4.0 mi South 8.1 mph - N/A   Overcast
4:43 AM 37.4 °F 31.4 °F 35.6 °F 93% 29.93 in 4.0 mi South 8.1 mph - N/A   Scattered Clouds
5:53 AM 37.9 °F 32.1 °F 35.1 °F 89% 29.96 in 5.0 mi South 8.1 mph - N/A   Overcast
6:53 AM 37.0 °F 31.6 °F 35.1 °F 93% 29.94 in 4.0 mi South 6.9 mph - N/A   Scattered Clouds
7:53 AM 37.9 °F 35.5 °F 35.1 °F 89% 29.93 in 3.0 mi South 3.5 mph - N/A   Clear
8:53 AM 41.0 °F 37.1 °F 37.0 °F 86% 29.91 in 4.0 mi South 5.8 mph - N/A   Clear
9:53 AM 45.0 °F 39.7 °F 37.0 °F 74% 29.88 in 6.0 mi South 10.4 mph 17.3 mph N/A   Haze
10:53 AM 50.0 °F - 37.9 °F 63% 29.86 in 9.0 mi SSW 9.2 mph 17.3 mph N/A   Clear
11:53 AM 50.0 °F - 37.9 °F 63% 29.83 in 9.0 mi South 9.2 mph - N/A   Clear
12:53 PM 53.1 °F - 39.0 °F 59% 29.80 in 9.0 mi SSW 12.7 mph 18.4 mph N/A   Clear
1:53 PM 53.1 °F - 39.0 °F 59% 29.79 in 9.0 mi Variable 6.9 mph 19.6 mph N/A   Clear
2:53 PM 52.0 °F - 39.9 °F 63% 29.78 in 9.0 mi SSW 6.9 mph - N/A   Clear
3:53 PM 53.1 °F - 39.9 °F 61% 29.77 in 10.0 mi SSW 9.2 mph - N/A   Clear
4:53 PM 50.0 °F - 39.0 °F 66% 29.78 in 10.0 mi SSW 4.6 mph - N/A   Clear
5:53 PM 48.0 °F - 39.0 °F 71% 29.78 in 10.0 mi South 3.5 mph - N/A   Clear
6:53 PM 46.9 °F - 39.9 °F 77% 29.77 in 9.0 mi SSW 4.6 mph - N/A   Clear
7:53 PM 48.9 °F - 41.0 °F 74% 29.76 in 9.0 mi Variable 6.9 mph - N/A   Clear
9:53 PM 50.0 °F - 41.0 °F 71% 29.73 in 10.0 mi SSW 5.8 mph - N/A   Clear
11:53 PM 51.1 °F - 42.1 °F 71% 29.71 in 10.0 mi Variable 4.6 mph - N/A   Clear